Curtin, Australia

2:30 PM AWST on April 23, 2017 (GMT +0800)
Curtin

Weather History for YCIN - August, 2013

Change the Weather History Date:

Friday, August 2, 2013

  Actual Average Record
Temperature  
Mean Temperature 74 °F -  
Max Temperature 92 °F - - ()
Min Temperature 55 °F - - ()
Cooling Degree Days 8    
Growing Degree Days 24 (Base 50)    
Moisture  
Dew Point 47 °F    
Average Humidity 46    
Maximum Humidity 94    
Minimum Humidity 6    
Precipitation  
Precipitation 0.00 in - - ()
Sea Level Pressure  
Sea Level Pressure 29.97 in    
Wind  
Wind Speed 6 mph ()    
Max Wind Speed 14 mph    
Max Gust Speed -    
T = Trace of Precipitation, MM = Missing Value Source: Averaged Metar Reports

Daily Weather History Graph

Daily Weather History Graph

Search for Another Location

Airport or City:

Trip Planner

Search our weather history database for the weather conditions in past years. The results will help you decide how hot, cold, wet, or windy it might be!

Date:

Astronomy

Aug. 02, 2013 Rise Set
Actual Time 6:10 AM AWST 5:31 PM AWST
Civil Twilight 5:47 AM AWST 5:54 PM AWST
Nautical Twilight 5:21 AM AWST 6:20 PM AWST
Astronomical Twilight 4:55 AM AWST 6:46 PM AWST
Moon 2:17 AM AWST (8/2) 1:46 PM AWST (8/2)
Length of Visible Light 12h 06m
Length of Day
11h 20m
Waning Crescent, 19% of the Moon is Illuminated
Aug 2
Waning Crescent
Aug 7
New
Aug 14
First Quarter
Aug 21
Full
Aug 28
Last Quarter

Hourly Weather History & Observations

Time (AWST) Temp. Heat Index Dew Point Humidity Pressure Visibility Wind Dir Wind Speed Gust Speed Precip Events Conditions
12:00 AM 67 °F - 62 °F 80% 29.96 in - WSW 4.6 mph - -  
12:00 AM 66.2 °F - 62.6 °F 88% 29.95 in - WSW 4.6 mph - N/A   Unknown
1:00 AM 62.6 °F - 59.0 °F 88% 29.95 in - South 2.3 mph - N/A   Unknown
2:00 AM 59.0 °F - 55.4 °F 88% 29.95 in - SW 3.5 mph - N/A   Unknown
3:00 AM 58 °F - 56 °F 89% 29.95 in - SW 1.2 mph - -  
3:00 AM 57.2 °F - 55.4 °F 94% 29.95 in - SW 1.2 mph - N/A   Unknown
4:00 AM 57.2 °F - 55.4 °F 94% 29.95 in - Calm Calm - N/A   Unknown
5:00 AM 59.0 °F - 55.4 °F 88% 29.95 in - SSW 5.8 mph - N/A   Unknown
6:00 AM 60 °F - 54 °F 76% 29.98 in - ENE 13.8 mph - -  
6:00 AM 59.0 °F - 53.6 °F 82% 29.98 in - ENE 13.8 mph - N/A   Unknown
7:00 AM 60.8 °F - 59.0 °F 94% 29.98 in - NE 4.6 mph - N/A   Unknown
8:00 AM 69.8 °F - 64.4 °F 83% 30.01 in - ENE 5.8 mph - N/A   Unknown
9:00 AM 77 °F - 62 °F 49% 30.02 in - East 9.2 mph - -  
9:00 AM 77.0 °F - 60.8 °F 57% 30.01 in - East 9.2 mph - N/A   Unknown
10:00 AM 84.2 °F 83.8 °F 59.0 °F 42% 30.01 in - ENE 11.5 mph - N/A   Unknown
11:00 AM 87.8 °F - 51.8 °F 29% 29.98 in - ENE 11.5 mph - N/A   Unknown
12:00 PM 88 °F - 41 °F 11% 29.96 in - ESE 11.5 mph - -  
12:00 PM 87.8 °F - 41.0 °F 19% 29.95 in - ESE 11.5 mph - N/A   Mostly Cloudy
1:00 PM 89.6 °F - 39.2 °F 17% 29.95 in - ENE 11.5 mph - N/A   Mostly Cloudy
2:00 PM 91.4 °F - 39.2 °F 16% 29.92 in - ESE 6.9 mph - N/A   Scattered Clouds
3:00 PM 92 °F - 34 °F 6% 29.91 in - SE 11.5 mph - -  
3:00 PM 91.4 °F - 33.8 °F 13% 29.92 in - SE 11.5 mph - N/A   Unknown
4:00 PM 91.4 °F - 35.6 °F 14% 29.92 in - ESE 10.4 mph - N/A   Unknown
5:00 PM 87.8 °F - 33.8 °F 15% 29.92 in - East 9.2 mph - N/A   Unknown
6:00 PM 81 °F - 35 °F 10% 29.95 in - ESE 5.8 mph - -  
6:00 PM 80.6 °F - 35.6 °F 20% 29.95 in - ESE 5.8 mph - N/A   Unknown
7:00 PM 77.0 °F - 35.6 °F 22% 29.98 in - ESE 6.9 mph - N/A   Unknown
8:00 PM 77.0 °F - 35.6 °F 22% 30.01 in - ESE 6.9 mph - N/A   Unknown
9:00 PM 78 °F - 34 °F 11% 30.01 in - East 8.1 mph - -  
9:00 PM 78.8 °F - 33.8 °F 20% 30.01 in - East 8.1 mph - N/A   Unknown
10:00 PM 78.8 °F - 33.8 °F 20% 30.01 in - East 8.1 mph - N/A   Unknown
11:00 PM 75.2 °F - 33.8 °F 22% 30.01 in - SE 9.2 mph - N/A   Unknown